Tracking 30922 objects as of 2-Jul-2025
HD Live streaming from Space Station
objects crossing your sky now

STARLINK-3550

Track STARLINK-3550 now!
10-day predictions
STARLINK-3550 is classified as:


NORAD ID: 52373
Int'l Code: 2022-045AU
Perigee: 546.2 km
Apogee: 547.6 km
Inclination: 53.2 °
Period: 95.4 minutes
Semi major axis: 6917 km
RCS: Unknown
Launch date: April 29, 2022
Source: United States (US)
Launch site: AIR FORCE EASTERN TEST RANGE (AFETR)
Your satellite tracking list
Your tracking list is empty




NASA's NSSDC Master Catalog

Two Line Element Set (TLE):
1 52373U 22045AU  25182.56637443 -.00000207  00000-0  50602-5 0  9997
2 52373  53.2163 236.4562 0001045  81.6019 278.5092 15.08839294178014
Source of the keplerian elements: AFSPC